Other Public Products
Issued by NWS Charleston, SC

Home | Current Version | Previous Version | Text Only | Print | Product List | Glossary On
Versions: 1 2 3 4 5 6 7 8 9 10 11 12 13 14 15 16 17 18 19 20 21 22 23 24 25 26 27 28 29 30 31 32 33 34 35 36 37 38 39 40 41 42 43 44 45 46 47 48 49 50
000
FPUS82 KCHS 030212
OPUCHS

TEST...KCHS/KSAV Gateway Observations...TEST
National Weather Service Charleston SC
900 PM EST FRI DEC 02 2016

NOTE: "fair" indicates few or no clouds below 12,000 feet with no
significant weather and/or obstructions to visibility.

SCZ050-WAZ558-NCZ071-TXZ119-213-PAZ071-DCZ001-FLZ074-172-MI076-
NYZ176-178-MAZ016-IL014-TNZ027-NJZ106-GAZ044-MD014-030300-
...Gateway Observations for Charleston International...

CITY           SKY/WX    TMP DP  RH WIND       PRES   REMARKS
Chas Airport   CLEAR     44  37  76 CALM      30.21R
Seattle        LGT RAIN  46  46 100 SW15G23   30.10F FOG
Charlotte      PTCLDY    46  23  40 NW6       30.19R
Dallas DFW     CLOUDY    57  41  55 E8        30.10S
Dallas Love    LGT RAIN  58  40  51 E12       30.11S
Philladelphia  CLOUDY    44  28  53 W16       30.01S
Wash National  CLOUDY    45  28  51 W13       30.13R
Baltimore      CLOUDY    43  28  55 W13       30.08S
Miami          MOCLDY    77  70  79 NE7       30.07R
Detroit        CLOUDY    37  27  67 W12       30.21R WCI  29
Newark         MOCLDY    45  28  51 W15       29.91S
Laguardia      MOCLDY    48  29  47 W16G24    29.89S
J F K          MOCLDY    47  28  47 W22G32    29.91S
Boston Logan   CLEAR     44  29  55 W18       29.73F
Ft. Lauderdale CLOUDY    77  70  79 NE10      30.07R
Chicago O`Hare CLOUDY    35  25  66 NW8       30.29R WCI  29
Chicago Midway CLOUDY    38  26  62 W8        30.30R WCI  32
Houston Bush   CLOUDY    54  51  90 E16G22    30.07R
Houston Hobby  CLOUDY    56  51  84 E14       30.05R
Nashville      CLEAR     44  27  51 NW3       30.31R
Atlanta        PTCLDY    49  32  52 N6        30.24S

$$

GAZ044-118-TXZ119-213-NCZ071-DCZ001-MDZ014-506-PAZ021-071-NJZ106-
NYZ176-178-MAZ106-OHZ011-021-055-MIZ076-KYZ091-ILZ014-INZ047-
MNZ060-030300-
...Gateway Observations for Savannah International...

CITY           SKY/WX    TMP DP  RH WIND       PRES   REMARKS
Savannah Arpt  PTCLDY    47  40  76 CALM      30.22S
Atlanta        PTCLDY    49  32  52 N6        30.24S
Charlotte      PTCLDY    46  23  40 NW6       30.19R
Dallas DFW     CLOUDY    57  41  55 E8        30.10S
Houston Bush   CLOUDY    54  51  90 E16G22    30.07R
Wash National  CLOUDY    45  28  51 W13       30.13R
Wash Dulles    CLOUDY    42  27  55 W10       30.13R
Baltimore      CLOUDY    43  28  55 W13       30.08S
Philadelphia   CLOUDY    44  28  53 W16       30.01S
Newark         MOCLDY    45  28  51 W15       29.91S
Laguardia      MOCLDY    48  29  47 W16G24    29.89S
J F K          MOCLDY    47  28  47 W22G32    29.91S
Boston         CLEAR     44  29  55 W18       29.73F
Pittsburg      CLOUDY    37  32  82 W8        30.13S WCI  31
Akron          CLOUDY    37  29  72 NW15      30.17R WCI  28
Cleveland      CLOUDY    40  29  64 W10       30.20R WCI  33
Cincinnati     CLOUDY    39  31  72 NW9       30.29S WCI  33
Columbus       CLOUDY    37  30  75 W7        30.26R WCI  32
Detroit        CLOUDY    37  27  67 W12       30.21R WCI  29
Chicago O`Hare CLOUDY    35  25  66 NW8       30.29R WCI  29
Minneapolis    CLOUDY    31  23  72 W7        30.29S WCI  24
Indianapolis   DRIZZLE   37  34  89 W9        30.30S WCI  30

$$




USA.gov is the U.S. government's official web portal to all federal, state and local government web resources and services.